SCP
0 0 0 0 0 0 0 0 0 0 0 -0 0 0 -0 0 0 0 0 0 0 0 0 0 -0 -0 -0 -0 0 0 0 0 0 0 0 0 0 0 0 0 0 0 0 0
0 0 0 0 0 0 0 0 0 0 0 0 0 0 0 0 0 0 0 0 0 0 0 -0 -0 0 0 0 -0 0 0 0 0 0 -0 -0 0 0 0 0 0 0 0 0
0 0 0 0 0 0 0 0 0 0 0 0 0 0 0 0 0 0 0 0 -0 0 -0 0 0 0 -0 -0 0 -0 0 0 0 0 0 0 0 0 0 0 0 0 0 0
0 0 0 0 0 0 0 0 0 0 0 0 0 0 0 0 0 0 0 -0 -0 -0 -0 0 0 0 -0 -0 0 0 0 0 0 0 0 0 0 0 0 0 0 0 0 0
0 0 0 0 0 0 0 0 0 0 0 0 0 -0 -0 0 0 -0 -0 -0 -0 -0 -0 -0 -0 -0 -0 -0 -0 0 0 -0 0 0 0 0 0 0 0 0 0 0 0 0
0 0 0 0 0 0 0 0 0 0 0 0 0 -0 -0 -0 -0 -0 -0 -0 -0 -0 -0 -0 -0 -0 0 -0 -0 0 0 0 0 0 0 0 0 0 0 0 0 0 0 0
0 0 0 0 0 0 0 0 0 0 -0 -0 -0 0 -0 -0 -0 -0 -0 -0 -0 -0 -0 -0 -0 -0 0 0 0 0 0 0 0 0 0 0 0 0 0 0 0 0 0 0
0 0 0 0 0 0 0 0 0 0 -0 -0 -0 -0 -0 -0 -0 -0 -0 0 0 -0 -0 0 -0 -0 0 0 0 0 0 0 0 0 0 0 0 0 0 0 0 -0 -0 -0
0 0 0 0 0 0 0 -0 0 0 -0 -0 -0 -0 -0 -0 -0 0 -0 -0 -0 0 0 0 0 0 0 0 0 0 0 -0 -0 -0 -0 -0 0 0 0 -0 0 0 0 0
0 0 0 0 0 0 0 0 0 0 0 0 0 -0 -0 0 -0 -0 -0 -0 -0 -0 -0 -0 0 0 0 0 0 0 -0 0 0 -0 -0 -0 -0 0 -0 0 -0 -0 0 -0
0 0 0 0 0 0 0 0 0 0 0 0 0 0 0 -0 0 0 0 0 0 0 -0 0 0 0 -0 0 0 0 0 0 0 -0 -0 0 0 0 -0 -0 0 -0 0 0
0 0 0 0 0 0 0 0 0 0 0 0 0 0 0 -0 -0 -0 -0 0 0 0 0 0 0 0 0 0 0 0 0 0 0 -0 0 0 0 0 -0 0 0 0 0 0
0 0 0 0 0 0 -0 0 0 0 0 -0 0 0 -0 -0 -0 -0 -0 0 0 0 0 0 0 0 0 0 0 0 0 0 0 0 0 0 0 0 0 0 0 0 0 0
0 0 0 0 0 -0 0 0 0 0 0 0 -0 -0 -0 -0 -0 -0 -0 0 -0 0 0 0 0 0 0 0 0 0 -0 0 0 0 0 0 0 0 0 0 0 0 0 0
0 0 0 0 -0 -0 0 0 0 -0 0 0 0 -0 -0 -0 -0 0 0 0 0 0 0 0 0 0 0 0 0 0 0 0 0 0 0 0 0 0 0 0 0 0 0 0
0 0 0 0 -0 0 0 0 0 0 0 -0 -0 -0 -0 0 0 0 0 0 0 0 0 0 0 0 0 0 0 0 0 0 0 0 0 0 0 0 0 0 0 0 0 0
0 0 -0 -0 0 0 0 0 0 0 0 0 0 0 0 0 0 0 0 0 0 0 0 0 0 0 0 0 0 0 0 0 0 0 0 0 0 0 0 0 0 0 0 0
0 0 -0 0 0 -0 -0 0 0 0 0 0 0 0 0 0 0 0 0 0 0 0 0 0 0 0 0 0 0 0 0 0 0 0 0 0 0 0 0 0 0 0 0 0
0 0 0 0 -0 -0 0 0 0 0 0 0 0 0 0 0 0 0 0 0 0 0 0 0 0 0 0 0 0 0 0 0 0 0 0 0 0 0 0 0 0 0 0 0
0 0 0 -0 -0 0 0 0 0 0 0 0 0 0 0 0 0 0 0 0 0 0 0 0 0 0 0 0 0 0 0 0 0 0 0 0 0 0 0 0 0 0 0 0
-0 -0 -0 -0 0 0 0 0 0 0 0 0 0 0 0 0 0 0 0 0 0 0 0 0 0 0 0 0 0 0 0 0 0 0 0 0 0 0 0 0 0 0 0 0
-0 -0 -0 0 0 0 0 0 0 0 0 0 0 0 0 0 0 0 0 0 0 0 0 0 0 0 0 0 0 0 0 0 0 0 0 0 0 0 0 0 0 0 0 0
-0 -0 0 0 0 0 0 0 0 0 0 0 0 0 0 0 0 0 0 0 0 0 0 0 0 0 0 0 0 0 0 0 0 0 0 0 0 0 0 0 0 0 0 0
0 -0 0 0 0 0 0 0 0 0 0 0 0 0 0 0 0 0 0 0 0 0 0 0 0 0 0 0 0 0 0 0 0 0 0 0 0 0 0 0 0 0 0 0
-0 0 0 0 0 0 0 0 0 0 0 0 0 0 0 0 0 0 0 0 0 0 0 0 0 0 0 0 0 0 0 0 0 0 0 0 0 -0 -0 -0 0 0 0 0
-0 0 0 0 0 0 0 0 0 0 0 0 0 0 0 0 0 0 0 0 0 0 0 0 0 0 0 0 0 0 0 0 0 0 0 0 -0 -0 -0 -0 -0 0 0 0
-0 0 0 0 0 0 0 0 0 0 0 0 0 0 0 0 0 0 0 0 0 0 0 0 0 0 0 0 0 0 0 0 0 -0 -0 -0 -0 -0 -0 -0 -0 -0 0 0
Wind_Speed_500mb
30 32 33 37 38 32 33 34 30 44 42 37 26 22 37 37 28 23 32 35 39 42 42 51 56 50 43 36 32 27 27 30 28 37 35 34 32 34 36 32 29 28 27 24
29 32 21 33 40 37 28 22 30 33 34 14 24 27 30 35 38 43 48 50 52 47 55 64 55 48 35 35 39 34 26 26 27 31 30 29 25 29 31 24 21 20 16 15
15 14 34 23 9 7 21 26 19 29 28 30 24 28 40 45 50 56 48 45 54 58 65 60 45 41 40 41 36 34 27 23 23 25 28 21 20 22 18 12 11 12 19 25
11 21 7 6 20 22 18 23 26 29 25 21 34 53 62 59 48 45 56 56 62 62 58 47 48 45 41 34 30 24 22 19 20 18 23 16 13 8 3 8 19 26 28 35
6 13 35 33 5 10 21 34 35 11 21 43 58 61 58 45 52 63 59 62 55 51 56 51 47 38 32 27 23 17 16 16 15 18 14 13 5 4 16 21 30 34 35 33
12 9 9 14 5 12 31 32 13 26 44 51 55 29 31 66 66 64 59 53 53 59 56 48 42 35 27 22 18 15 11 11 15 11 11 8 9 20 28 30 35 36 40 44
18 15 20 18 5 22 16 9 49 53 54 59 39 57 77 79 71 64 50 58 70 47 55 50 42 32 25 20 18 11 12 19 9 7 12 16 24 33 34 39 43 44 44 46
10 13 15 10 21 18 28 52 54 49 66 66 74 74 76 73 70 65 75 60 51 61 48 47 34 28 25 18 13 13 22 8 9 19 25 30 36 41 40 42 45 50 53 47
10 12 42 58 51 50 46 55 51 61 63 71 71 72 78 80 65 53 62 64 55 36 45 25 28 20 19 18 19 23 14 15 24 30 39 43 44 48 56 52 49 51 45 39
22 16 33 55 56 48 34 58 71 58 68 65 65 73 77 67 81 62 52 47 43 45 41 28 11 15 23 25 26 23 21 29 39 49 52 51 54 53 50 42 45 45 41 39
32 43 44 38 46 57 59 55 57 64 59 63 70 69 69 69 67 61 58 47 38 27 19 14 21 29 32 31 28 24 36 49 57 58 60 61 52 45 46 47 44 39 39 42
20 41 42 53 56 56 50 58 63 58 65 61 60 62 59 65 64 59 52 39 29 18 19 27 38 39 40 36 27 42 53 65 66 66 69 66 56 65 56 56 52 54 55 54
48 48 52 56 47 45 60 61 52 59 59 59 52 51 54 61 53 42 31 20 20 19 33 48 47 47 45 38 33 48 67 72 76 77 58 55 56 59 60 60 58 58 57 55
40 43 45 46 52 55 50 56 67 56 44 44 47 49 48 39 19 24 16 8 29 44 54 56 58 53 48 39 42 58 74 77 80 58 52 53 55 51 49 50 51 51 50 42
26 28 37 49 54 58 57 66 48 45 43 43 45 40 28 17 14 19 20 38 57 64 63 63 60 54 45 44 58 73 80 82 60 54 52 52 48 50 49 50 51 48 43 44
35 39 46 53 57 50 58 46 42 44 45 41 33 21 13 12 19 32 38 42 56 62 59 59 57 51 51 61 75 82 83 64 54 56 54 53 51 48 47 45 43 41 39 37
38 48 50 50 42 55 40 36 41 41 40 25 18 8 12 15 22 33 44 51 56 58 57 57 57 56 61 71 83 91 80 59 58 55 56 53 49 46 44 42 44 44 44 45
32 34 38 46 45 39 36 38 38 28 22 14 11 10 14 24 34 42 41 45 53 56 55 56 59 60 68 78 91 76 57 56 57 57 54 50 49 48 47 47 48 49 48 50
29 36 45 32 29 28 27 31 23 18 17 9 11 21 26 35 40 39 41 50 56 58 53 54 63 74 82 93 70 57 58 57 58 54 54 56 51 48 48 48 49 48 47 45
29 42 24 23 23 22 20 14 13 15 12 12 20 28 35 37 34 38 44 53 54 57 55 64 80 89 83 72 61 57 57 57 60 56 53 52 50 50 50 51 51 49 46 44
34 31 19 14 18 16 7 10 11 14 14 15 26 33 34 35 36 41 51 56 47 53 67 84 89 84 62 64 58 58 61 58 56 55 53 54 53 51 50 50 49 47 44 43
34 17 12 12 10 8 8 10 14 17 19 26 29 31 35 41 43 49 55 63 57 65 79 71 66 62 60 59 57 58 58 55 54 52 51 50 50 50 50 48 48 45 42 41
16 13 10 5 4 7 8 13 17 22 25 27 29 34 40 46 51 60 62 56 65 73 69 58 73 73 63 55 57 57 54 52 51 50 49 48 49 49 48 48 46 43 41 40
10 10 7 6 10 9 14 16 20 25 26 27 29 35 48 50 48 50 58 60 65 64 70 75 70 65 56 55 55 53 51 50 50 48 49 49 48 49 49 46 44 43 46 46
6 3 7 11 9 11 17 19 23 27 30 31 33 38 43 43 48 53 50 55 59 69 69 65 60 60 50 51 51 49 48 47 47 47 48 49 47 45 47 45 43 41 40 39
4 3 5 8 9 13 20 23 28 29 30 35 35 37 39 50 54 55 55 60 59 56 55 54 46 47 48 49 48 46 44 51 47 45 47 47 47 46 46 49 45 39 39 43
4 6 9 13 14 14 20 22 28 30 35 40 43 41 43 56 60 54 61 63 54 49 45 42 46 47 48 48 43 45 45 42 45 45 46 48 46 51 49 46 44 43 44 46
Wind_Direction_500mb
275 287 286 284 285 284 277 278 275 288 289 309 344 336 313 318 297 301 292 307 316 317 317 317 313 304 301 302 308 305 306 301 318 323 339 333 331 333 333 331 323 322 325 333
286 277 285 291 286 278 270 268 284 297 299 352 325 316 326 325 321 309 308 306 311 313 314 316 313 306 306 296 297 298 300 306 323 321 329 334 333 328 336 324 325 335 347 12
274 337 311 285 312 314 300 286 307 302 303 328 323 316 319 312 309 306 306 310 306 311 313 311 310 305 302 297 296 290 287 299 316 321 318 330 324 327 323 333 356 41 78 90
294 307 265 56 313 293 291 288 292 299 334 331 321 315 314 309 325 320 315 315 309 306 307 304 303 301 302 301 297 288 278 285 306 309 321 310 301 312 343 87 98 98 102 105
267 291 278 267 116 345 326 302 290 345 320 313 318 317 305 310 310 304 309 307 305 305 302 300 302 300 297 298 295 292 268 265 286 302 297 272 263 142 117 112 107 106 104 104
295 282 282 49 150 329 309 291 81 333 323 323 323 303 301 312 307 300 305 306 304 303 305 300 301 299 295 291 284 272 268 248 272 283 260 206 154 123 120 113 108 106 101 93
245 237 270 301 9 308 287 330 322 325 314 311 309 297 302 308 306 305 302 300 303 297 297 295 299 288 289 275 274 249 250 235 265 225 171 144 123 123 115 109 105 98 93 87
243 264 279 38 307 320 303 306 308 314 308 310 304 303 307 307 306 303 304 298 296 297 289 294 287 274 280 251 231 187 213 216 171 147 137 125 122 114 110 106 92 86 88 89
243 266 313 309 300 304 307 299 310 302 306 307 302 304 308 306 304 305 302 297 294 285 295 276 260 263 214 200 176 179 195 162 141 134 127 122 117 108 97 90 90 89 83 84
280 264 285 302 303 305 312 310 295 295 302 301 302 305 307 301 307 304 301 296 292 291 283 279 246 186 175 171 171 183 167 143 135 130 127 120 109 96 91 90 91 94 91 84
274 287 295 297 305 309 306 302 306 303 306 309 304 303 303 306 306 304 301 301 294 282 262 222 173 166 162 164 170 167 148 137 134 126 122 112 106 97 96 101 96 92 88 85
269 298 301 302 311 310 308 307 306 314 311 310 306 304 307 308 308 309 308 300 294 266 216 178 166 164 161 166 167 156 137 140 130 125 119 109 100 100 98 100 97 97 95 89
275 293 296 300 311 312 307 310 315 311 310 309 309 310 311 312 319 326 321 290 258 203 174 162 159 155 162 166 161 149 142 138 131 127 109 108 108 104 100 97 95 91 85 82
284 299 300 310 307 309 314 317 314 309 308 306 313 314 320 327 13 46 4 5 148 152 149 151 152 154 157 158 153 144 144 139 129 113 113 115 116 106 103 99 91 83 78 79
300 310 301 303 306 316 315 317 314 313 314 315 320 326 345 45 79 55 89 118 132 137 142 147 148 148 153 151 149 145 142 137 118 117 117 119 113 108 104 97 90 87 80 76
309 307 306 309 315 313 324 322 318 320 324 322 325 353 68 101 110 111 115 125 129 133 138 140 142 146 147 150 147 145 136 120 124 120 119 119 114 109 105 101 97 90 85 79
312 312 315 316 318 322 321 321 325 325 322 326 345 89 108 114 116 117 120 122 123 126 134 141 138 142 147 148 143 140 125 120 121 121 120 117 113 110 107 102 96 90 83 86
309 309 311 315 317 316 321 330 332 336 350 6 103 110 136 114 105 112 117 122 123 127 135 136 136 142 142 141 138 129 124 121 121 121 121 117 114 109 105 101 97 92 87 83
318 316 319 325 327 321 315 326 339 6 27 78 91 115 120 112 112 115 121 124 126 130 135 135 135 135 136 135 125 126 124 125 123 122 121 113 111 108 105 103 99 95 92 86
319 325 321 328 336 324 320 336 19 33 55 81 110 117 121 124 130 130 130 130 132 128 135 133 135 135 129 125 127 129 127 126 123 118 118 116 114 111 108 103 98 96 93 86
326 330 324 336 333 339 10 41 53 73 78 104 119 121 121 124 130 133 131 123 123 129 131 136 138 130 126 123 125 127 126 126 125 121 119 115 111 110 107 102 99 96 93 88
332 328 335 359 345 33 60 71 91 97 105 114 123 122 125 126 131 135 129 125 130 134 136 129 130 126 127 128 130 130 128 126 123 121 118 117 114 111 107 104 101 99 97 93
341 355 356 348 78 58 84 102 105 114 118 123 122 125 126 128 134 135 128 131 135 138 134 132 134 130 127 128 129 129 128 125 123 121 120 118 116 112 110 108 106 105 100 96
355 12 25 97 106 108 111 113 115 117 118 122 125 132 135 134 132 139 137 142 140 137 134 135 133 125 128 128 130 129 128 126 124 124 122 119 118 116 112 112 113 112 108 98
359 54 45 110 112 121 126 125 123 121 122 121 124 132 136 141 142 138 141 142 136 136 136 138 131 123 131 133 133 131 129 129 127 126 124 123 121 120 119 119 118 117 113 108
27 95 77 133 145 139 142 136 131 128 130 128 127 134 131 137 133 134 138 139 134 128 133 132 130 134 135 136 136 133 136 135 127 129 129 127 127 126 128 128 125 121 119 118
90 89 88 130 148 142 145 145 137 138 139 138 134 135 136 138 137 136 139 136 128 133 135 141 138 138 140 138 140 135 130 135 133 133 135 134 134 135 133 132 133 131 128 125
Wind_Speed_850mb
30 32 33 37 38 32 33 34 30 44 42 37 26 22 37 37 28 23 32 35 39 42 42 51 56 50 43 36 32 27 27 30 28 37 35 34 32 34 36 32 29 28 27 24
29 32 21 33 40 37 28 22 30 33 34 14 24 27 30 35 38 43 48 50 52 47 55 64 55 48 35 35 39 34 26 26 27 31 30 29 25 29 31 24 21 20 16 15
15 14 34 23 9 7 21 26 19 29 28 30 24 28 40 45 50 56 48 45 54 58 65 60 45 41 40 41 36 34 27 23 23 25 28 21 20 22 18 12 11 12 19 25
11 21 7 6 20 22 18 23 26 29 25 21 34 53 62 59 48 45 56 56 62 62 58 47 48 45 41 34 30 24 22 19 20 18 23 16 13 8 3 8 19 26 28 35
6 13 35 33 5 10 21 34 35 11 21 43 58 61 58 45 52 63 59 62 55 51 56 51 47 38 32 27 23 17 16 16 15 18 14 13 5 4 16 21 30 34 35 33
12 9 9 14 5 12 31 32 13 26 44 51 55 29 31 66 66 64 59 53 53 59 56 48 42 35 27 22 18 15 11 11 15 11 11 8 9 20 28 30 35 36 40 44
18 15 20 18 5 22 16 9 49 53 54 59 39 57 77 79 71 64 50 58 70 47 55 50 42 32 25 20 18 11 12 19 9 7 12 16 24 33 34 39 43 44 44 46
10 13 15 10 21 18 28 52 54 49 66 66 74 74 76 73 70 65 75 60 51 61 48 47 34 28 25 18 13 13 22 8 9 19 25 30 36 41 40 42 45 50 53 47
10 12 42 58 51 50 46 55 51 61 63 71 71 72 78 80 65 53 62 64 55 36 45 25 28 20 19 18 19 23 14 15 24 30 39 43 44 48 56 52 49 51 45 39
22 16 33 55 56 48 34 58 71 58 68 65 65 73 77 67 81 62 52 47 43 45 41 28 11 15 23 25 26 23 21 29 39 49 52 51 54 53 50 42 45 45 41 39
32 43 44 38 46 57 59 55 57 64 59 63 70 69 69 69 67 61 58 47 38 27 19 14 21 29 32 31 28 24 36 49 57 58 60 61 52 45 46 47 44 39 39 42
20 41 42 53 56 56 50 58 63 58 65 61 60 62 59 65 64 59 52 39 29 18 19 27 38 39 40 36 27 42 53 65 66 66 69 66 56 65 56 56 52 54 55 54
48 48 52 56 47 45 60 61 52 59 59 59 52 51 54 61 53 42 31 20 20 19 33 48 47 47 45 38 33 48 67 72 76 77 58 55 56 59 60 60 58 58 57 55
40 43 45 46 52 55 50 56 67 56 44 44 47 49 48 39 19 24 16 8 29 44 54 56 58 53 48 39 42 58 74 77 80 58 52 53 55 51 49 50 51 51 50 42
26 28 37 49 54 58 57 66 48 45 43 43 45 40 28 17 14 19 20 38 57 64 63 63 60 54 45 44 58 73 80 82 60 54 52 52 48 50 49 50 51 48 43 44
35 39 46 53 57 50 58 46 42 44 45 41 33 21 13 12 19 32 38 42 56 62 59 59 57 51 51 61 75 82 83 64 54 56 54 53 51 48 47 45 43 41 39 37
38 48 50 50 42 55 40 36 41 41 40 25 18 8 12 15 22 33 44 51 56 58 57 57 57 56 61 71 83 91 80 59 58 55 56 53 49 46 44 42 44 44 44 45
32 34 38 46 45 39 36 38 38 28 22 14 11 10 14 24 34 42 41 45 53 56 55 56 59 60 68 78 91 76 57 56 57 57 54 50 49 48 47 47 48 49 48 50
29 36 45 32 29 28 27 31 23 18 17 9 11 21 26 35 40 39 41 50 56 58 53 54 63 74 82 93 70 57 58 57 58 54 54 56 51 48 48 48 49 48 47 45
29 42 24 23 23 22 20 14 13 15 12 12 20 28 35 37 34 38 44 53 54 57 55 64 80 89 83 72 61 57 57 57 60 56 53 52 50 50 50 51 51 49 46 44
34 31 19 14 18 16 7 10 11 14 14 15 26 33 34 35 36 41 51 56 47 53 67 84 89 84 62 64 58 58 61 58 56 55 53 54 53 51 50 50 49 47 44 43
34 17 12 12 10 8 8 10 14 17 19 26 29 31 35 41 43 49 55 63 57 65 79 71 66 62 60 59 57 58 58 55 54 52 51 50 50 50 50 48 48 45 42 41
16 13 10 5 4 7 8 13 17 22 25 27 29 34 40 46 51 60 62 56 65 73 69 58 73 73 63 55 57 57 54 52 51 50 49 48 49 49 48 48 46 43 41 40
10 10 7 6 10 9 14 16 20 25 26 27 29 35 48 50 48 50 58 60 65 64 70 75 70 65 56 55 55 53 51 50 50 48 49 49 48 49 49 46 44 43 46 46
6 3 7 11 9 11 17 19 23 27 30 31 33 38 43 43 48 53 50 55 59 69 69 65 60 60 50 51 51 49 48 47 47 47 48 49 47 45 47 45 43 41 40 39
4 3 5 8 9 13 20 23 28 29 30 35 35 37 39 50 54 55 55 60 59 56 55 54 46 47 48 49 48 46 44 51 47 45 47 47 47 46 46 49 45 39 39 43
4 6 9 13 14 14 20 22 28 30 35 40 43 41 43 56 60 54 61 63 54 49 45 42 46 47 48 48 43 45 45 42 45 45 46 48 46 51 49 46 44 43 44 46
Wind_Direction_850mb
275 287 286 284 285 284 277 278 275 288 289 309 344 336 313 318 297 301 292 307 316 317 317 317 313 304 301 302 308 305 306 301 318 323 339 333 331 333 333 331 323 322 325 333
286 277 285 291 286 278 270 268 284 297 299 352 325 316 326 325 321 309 308 306 311 313 314 316 313 306 306 296 297 298 300 306 323 321 329 334 333 328 336 324 325 335 347 12
274 337 311 285 312 314 300 286 307 302 303 328 323 316 319 312 309 306 306 310 306 311 313 311 310 305 302 297 296 290 287 299 316 321 318 330 324 327 323 333 356 41 78 90
294 307 265 56 313 293 291 288 292 299 334 331 321 315 314 309 325 320 315 315 309 306 307 304 303 301 302 301 297 288 278 285 306 309 321 310 301 312 343 87 98 98 102 105
267 291 278 267 116 345 326 302 290 345 320 313 318 317 305 310 310 304 309 307 305 305 302 300 302 300 297 298 295 292 268 265 286 302 297 272 263 142 117 112 107 106 104 104
295 282 282 49 150 329 309 291 81 333 323 323 323 303 301 312 307 300 305 306 304 303 305 300 301 299 295 291 284 272 268 248 272 283 260 206 154 123 120 113 108 106 101 93
245 237 270 301 9 308 287 330 322 325 314 311 309 297 302 308 306 305 302 300 303 297 297 295 299 288 289 275 274 249 250 235 265 225 171 144 123 123 115 109 105 98 93 87
243 264 279 38 307 320 303 306 308 314 308 310 304 303 307 307 306 303 304 298 296 297 289 294 287 274 280 251 231 187 213 216 171 147 137 125 122 114 110 106 92 86 88 89
243 266 313 309 300 304 307 299 310 302 306 307 302 304 308 306 304 305 302 297 294 285 295 276 260 263 214 200 176 179 195 162 141 134 127 122 117 108 97 90 90 89 83 84
280 264 285 302 303 305 312 310 295 295 302 301 302 305 307 301 307 304 301 296 292 291 283 279 246 186 175 171 171 183 167 143 135 130 127 120 109 96 91 90 91 94 91 84
274 287 295 297 305 309 306 302 306 303 306 309 304 303 303 306 306 304 301 301 294 282 262 222 173 166 162 164 170 167 148 137 134 126 122 112 106 97 96 101 96 92 88 85
269 298 301 302 311 310 308 307 306 314 311 310 306 304 307 308 308 309 308 300 294 266 216 178 166 164 161 166 167 156 137 140 130 125 119 109 100 100 98 100 97 97 95 89
275 293 296 300 311 312 307 310 315 311 310 309 309 310 311 312 319 326 321 290 258 203 174 162 159 155 162 166 161 149 142 138 131 127 109 108 108 104 100 97 95 91 85 82
284 299 300 310 307 309 314 317 314 309 308 306 313 314 320 327 13 46 4 5 148 152 149 151 152 154 157 158 153 144 144 139 129 113 113 115 116 106 103 99 91 83 78 79
300 310 301 303 306 316 315 317 314 313 314 315 320 326 345 45 79 55 89 118 132 137 142 147 148 148 153 151 149 145 142 137 118 117 117 119 113 108 104 97 90 87 80 76
309 307 306 309 315 313 324 322 318 320 324 322 325 353 68 101 110 111 115 125 129 133 138 140 142 146 147 150 147 145 136 120 124 120 119 119 114 109 105 101 97 90 85 79
312 312 315 316 318 322 321 321 325 325 322 326 345 89 108 114 116 117 120 122 123 126 134 141 138 142 147 148 143 140 125 120 121 121 120 117 113 110 107 102 96 90 83 86
309 309 311 315 317 316 321 330 332 336 350 6 103 110 136 114 105 112 117 122 123 127 135 136 136 142 142 141 138 129 124 121 121 121 121 117 114 109 105 101 97 92 87 83
318 316 319 325 327 321 315 326 339 6 27 78 91 115 120 112 112 115 121 124 126 130 135 135 135 135 136 135 125 126 124 125 123 122 121 113 111 108 105 103 99 95 92 86
319 325 321 328 336 324 320 336 19 33 55 81 110 117 121 124 130 130 130 130 132 128 135 133 135 135 129 125 127 129 127 126 123 118 118 116 114 111 108 103 98 96 93 86
326 330 324 336 333 339 10 41 53 73 78 104 119 121 121 124 130 133 131 123 123 129 131 136 138 130 126 123 125 127 126 126 125 121 119 115 111 110 107 102 99 96 93 88
332 328 335 359 345 33 60 71 91 97 105 114 123 122 125 126 131 135 129 125 130 134 136 129 130 126 127 128 130 130 128 126 123 121 118 117 114 111 107 104 101 99 97 93
341 355 356 348 78 58 84 102 105 114 118 123 122 125 126 128 134 135 128 131 135 138 134 132 134 130 127 128 129 129 128 125 123 121 120 118 116 112 110 108 106 105 100 96
355 12 25 97 106 108 111 113 115 117 118 122 125 132 135 134 132 139 137 142 140 137 134 135 133 125 128 128 130 129 128 126 124 124 122 119 118 116 112 112 113 112 108 98
359 54 45 110 112 121 126 125 123 121 122 121 124 132 136 141 142 138 141 142 136 136 136 138 131 123 131 133 133 131 129 129 127 126 124 123 121 120 119 119 118 117 113 108
27 95 77 133 145 139 142 136 131 128 130 128 127 134 131 137 133 134 138 139 134 128 133 132 130 134 135 136 136 133 136 135 127 129 129 127 127 126 128 128 125 121 119 118
90 89 88 130 148 142 145 145 137 138 139 138 134 135 136 138 137 136 139 136 128 133 135 141 138 138 140 138 140 135 130 135 133 133 135 134 134 135 133 132 133 131 128 125